{"data":{"norad_id":65971,"epoch":"2026-09-20T22:48:55.951776Z","epoch_age_seconds":101415,"freshness":"FRESH","line1":"1 65971U 25229A   26263.95064759  .00002225  00000+0  16544-3 0  9995","line2":"2 65971  41.9270 116.1325 0036875 319.4537  40.3544 15.05010673 51401","mean_motion":15.05010673,"eccentricity":0.0036875,"inclination_deg":41.927,"raan_deg":116.1325,"arg_perigee_deg":319.4537,"mean_anomaly_deg":40.3544,"bstar":0.00016544,"rev_number":5140,"period_min":95.680384586881,"perigee_km":525.91998383142,"apogee_km":577.02585699446,"semimajor_km":6929.6099204129,"source":"CELESTRAK","updated_at":"2026-09-21T09:00:15.685149Z"}}